Time,TemperatureF,DewpointF,PressureIn,WindDirection,WindDirectionDegrees,WindSpeedMPH,WindSpeedGustMPH,Humidity,HourlyPrecipIn,Conditions,Clouds,dailyrainin,SoftwareType,DateUTC
2013-06-18 00:02:00,66.0,65.0,29.94,SW,236,0.0,0.0,95,0.00,,,0.00,,2013-06-18 04:02:00,
2013-06-18 00:23:00,66.0,65.0,29.94,SW,236,0.0,0.0,95,0.00,,,0.00,,2013-06-18 04:23:00,
2013-06-18 00:34:00,66.0,65.0,29.94,SW,236,0.0,0.0,95,0.00,,,0.00,,2013-06-18 04:34:00,
2013-06-18 00:43:00,66.0,65.0,29.94,SW,236,0.0,0.0,95,0.00,,,0.00,,2013-06-18 04:43:00,
2013-06-18 00:54:00,66.0,65.0,29.94,SW,236,0.0,0.0,95,0.00,,,0.00,,2013-06-18 04:54:00,
2013-06-18 01:01:00,66.0,65.0,29.92,SW,236,0.0,0.0,96,0.00,,,0.00,,2013-06-18 05:01:00,
2013-06-18 01:22:00,66.0,65.0,29.92,SW,236,0.0,0.0,96,0.00,,,0.00,,2013-06-18 05:22:00,
2013-06-18 01:34:00,66.0,65.0,29.92,SW,236,0.0,0.0,96,0.00,,,0.00,,2013-06-18 05:34:00,
2013-06-18 01:43:00,66.0,65.0,29.92,SW,236,0.0,0.0,96,0.00,,,0.00,,2013-06-18 05:43:00,
2013-06-18 01:53:00,66.0,65.0,29.92,SW,236,0.0,0.0,96,0.00,,,0.00,,2013-06-18 05:53:00,
2013-06-18 02:01:00,65.0,64.0,29.91,SW,236,0.0,0.0,96,0.00,,,0.00,,2013-06-18 06:01:00,
2013-06-18 02:24:00,65.0,64.0,29.91,SW,236,0.0,0.0,96,0.00,,,0.00,,2013-06-18 06:24:00,
2013-06-18 02:33:00,65.0,64.0,29.91,SW,236,0.0,0.0,96,0.00,,,0.00,,2013-06-18 06:33:00,
2013-06-18 02:43:00,65.0,64.0,29.91,SW,236,0.0,0.0,96,0.00,,,0.00,,2013-06-18 06:43:00,
2013-06-18 02:53:00,65.0,64.0,29.91,SW,236,0.0,0.0,96,0.00,,,0.00,,2013-06-18 06:53:00,
2013-06-18 03:01:00,64.0,63.0,29.89,SW,236,0.0,0.0,96,0.00,,,0.00,,2013-06-18 07:01:00,
2013-06-18 03:22:00,64.0,63.0,29.89,SW,236,0.0,0.0,96,0.00,,,0.00,,2013-06-18 07:22:00,
2013-06-18 03:33:00,64.0,63.0,29.89,SW,236,0.0,0.0,96,0.00,,,0.00,,2013-06-18 07:33:00,
2013-06-18 03:43:00,64.0,63.0,29.89,SW,236,0.0,0.0,96,0.00,,,0.00,,2013-06-18 07:43:00,
2013-06-18 03:53:00,64.0,63.0,29.89,SW,236,0.0,0.0,96,0.00,,,0.00,,2013-06-18 07:53:00,
2013-06-18 04:01:00,65.0,64.0,29.88,SW,236,0.0,0.0,96,0.00,,,0.00,,2013-06-18 08:01:00,
2013-06-18 04:23:00,65.0,64.0,29.88,SW,236,0.0,0.0,96,0.00,,,0.00,,2013-06-18 08:23:00,
2013-06-18 04:33:00,65.0,64.0,29.88,SW,236,0.0,0.0,96,0.00,,,0.00,,2013-06-18 08:33:00,
2013-06-18 04:43:00,65.0,64.0,29.88,SW,236,0.0,0.0,96,0.00,,,0.00,,2013-06-18 08:43:00,
2013-06-18 04:52:00,65.0,64.0,29.88,SW,236,0.0,0.0,96,0.00,,,0.00,,2013-06-18 08:52:00,
2013-06-18 05:01:00,66.0,65.0,29.88,SW,236,0.0,0.0,96,0.00,,,0.00,,2013-06-18 09:01:00,
2013-06-18 05:22:00,66.0,65.0,29.88,SW,236,0.0,0.0,96,0.00,,,0.00,,2013-06-18 09:22:00,
2013-06-18 05:34:00,66.0,65.0,29.88,SW,236,0.0,0.0,96,0.00,,,0.00,,2013-06-18 09:34:00,
2013-06-18 05:43:00,66.0,65.0,29.88,SW,236,0.0,0.0,96,0.00,,,0.00,,2013-06-18 09:43:00,
2013-06-18 05:53:00,66.0,65.0,29.88,SW,236,0.0,0.0,96,0.00,,,0.00,,2013-06-18 09:53:00,
2013-06-18 06:01:00,65.0,64.0,29.89,SW,236,0.0,0.0,96,0.00,,,0.00,,2013-06-18 10:01:00,
2013-06-18 06:22:00,65.0,64.0,29.89,SW,236,0.0,0.0,96,0.00,,,0.00,,2013-06-18 10:22:00,
2013-06-18 06:33:00,65.0,64.0,29.89,SW,236,0.0,0.0,96,0.00,,,0.00,,2013-06-18 10:33:00,
2013-06-18 06:43:00,65.0,64.0,29.89,SW,236,0.0,0.0,96,0.00,,,0.00,,2013-06-18 10:43:00,
2013-06-18 06:53:00,65.0,64.0,29.89,SW,236,0.0,0.0,96,0.00,,,0.00,,2013-06-18 10:53:00,
2013-06-18 07:01:00,68.0,67.0,29.90,SW,236,0.0,0.0,96,0.00,,,0.00,,2013-06-18 11:01:00,
2013-06-18 07:22:00,68.0,67.0,29.90,SW,236,0.0,0.0,96,0.00,,,0.00,,2013-06-18 11:22:00,
2013-06-18 07:32:00,68.0,67.0,29.90,SW,236,0.0,0.0,96,0.00,,,0.00,,2013-06-18 11:32:00,
2013-06-18 07:43:00,68.0,67.0,29.90,SW,236,0.0,0.0,96,0.00,,,0.00,,2013-06-18 11:43:00,
2013-06-18 07:52:00,68.0,67.0,29.90,SW,236,0.0,0.0,96,0.00,,,0.00,,2013-06-18 11:52:00,
2013-06-18 08:02:00,70.0,68.0,29.89,SW,236,0.0,0.0,95,0.00,,,0.00,,2013-06-18 12:02:00,
2013-06-18 08:22:00,70.0,68.0,29.89,SW,236,0.0,0.0,95,0.00,,,0.00,,2013-06-18 12:22:00,
2013-06-18 08:33:00,70.0,68.0,29.89,SW,236,0.0,0.0,95,0.00,,,0.00,,2013-06-18 12:33:00,
2013-06-18 08:43:00,70.0,68.0,29.89,SW,236,0.0,0.0,95,0.00,,,0.00,,2013-06-18 12:43:00,
2013-06-18 08:52:00,70.0,68.0,29.89,SW,236,0.0,0.0,95,0.00,,,0.00,,2013-06-18 12:52:00,
2013-06-18 09:02:00,72.0,70.0,29.90,NNE,18,0.0,1.0,92,0.00,,,0.00,,2013-06-18 13:02:00,
2013-06-18 09:22:00,72.0,70.0,29.90,NNE,18,0.0,1.0,92,0.00,,,0.00,,2013-06-18 13:22:00,
2013-06-18 09:34:00,72.0,70.0,29.90,NNE,18,0.0,1.0,92,0.00,,,0.00,,2013-06-18 13:34:00,
2013-06-18 09:43:00,72.0,70.0,29.90,NNE,18,0.0,1.0,92,0.00,,,0.00,,2013-06-18 13:43:00,
2013-06-18 09:53:00,72.0,70.0,29.90,NNE,18,0.0,1.0,92,0.00,,,0.00,,2013-06-18 13:53:00,
2013-06-18 10:02:00,73.0,70.0,29.89,NE,45,0.0,0.0,89,0.00,,,0.00,,2013-06-18 14:02:00,
2013-06-18 10:22:00,73.0,70.0,29.89,NE,45,0.0,0.0,89,0.00,,,0.00,,2013-06-18 14:22:00,
2013-06-18 10:33:00,73.0,70.0,29.89,NE,45,0.0,0.0,89,0.00,,,0.00,,2013-06-18 14:33:00,
2013-06-18 10:43:00,73.0,70.0,29.89,NE,45,0.0,0.0,89,0.00,,,0.00,,2013-06-18 14:43:00,
2013-06-18 10:53:00,73.0,70.0,29.89,NE,45,0.0,0.0,89,0.00,,,0.00,,2013-06-18 14:53:00,
2013-06-18 11:22:00,73.0,71.0,29.88,NE,46,0.0,0.0,92,0.00,,,0.00,,2013-06-18 15:22:00,
2013-06-18 11:33:00,73.0,71.0,29.88,NE,46,0.0,0.0,92,0.00,,,0.00,,2013-06-18 15:33:00,
2013-06-18 11:43:00,73.0,71.0,29.88,NE,46,0.0,0.0,92,0.00,,,0.00,,2013-06-18 15:43:00,
2013-06-18 11:53:00,73.0,71.0,29.88,NE,46,0.0,0.0,92,0.00,,,0.00,,2013-06-18 15:53:00,
2013-06-18 12:01:00,73.0,71.0,29.88,NE,46,0.0,0.0,92,0.00,,,0.00,,2013-06-18 16:01:00,
2013-06-18 12:23:00,72.0,70.0,29.88,NE,46,0.0,2.0,95,0.07,,,0.07,,2013-06-18 16:23:00,
2013-06-18 12:33:00,72.0,70.0,29.88,NE,46,0.0,2.0,95,0.07,,,0.07,,2013-06-18 16:33:00,
2013-06-18 12:43:00,72.0,70.0,29.88,NE,46,0.0,2.0,95,0.07,,,0.07,,2013-06-18 16:43:00,
2013-06-18 12:53:00,72.0,70.0,29.88,NE,46,0.0,2.0,95,0.07,,,0.07,,2013-06-18 16:53:00,
2013-06-18 13:02:00,67.0,66.0,29.90,South,178,0.0,3.0,95,0.22,,,0.29,,2013-06-18 17:02:00,
2013-06-18 13:23:00,67.0,66.0,29.90,South,178,0.0,3.0,95,0.22,,,0.29,,2013-06-18 17:23:00,
2013-06-18 13:34:00,67.0,66.0,29.90,South,178,0.0,3.0,95,0.22,,,0.29,,2013-06-18 17:34:00,
2013-06-18 13:43:00,67.0,66.0,29.90,South,178,0.0,3.0,95,0.22,,,0.29,,2013-06-18 17:43:00,
2013-06-18 13:53:00,67.0,66.0,29.90,South,178,0.0,3.0,95,0.22,,,0.29,,2013-06-18 17:53:00,
2013-06-18 14:01:00,64.0,63.0,29.85,SW,229,0.0,0.0,96,0.36,,,0.64,,2013-06-18 18:01:00,
2013-06-18 14:22:00,64.0,63.0,29.85,SW,229,0.0,0.0,96,0.36,,,0.64,,2013-06-18 18:22:00,
2013-06-18 14:33:00,64.0,63.0,29.85,SW,229,0.0,0.0,96,0.36,,,0.64,,2013-06-18 18:33:00,
2013-06-18 14:43:00,64.0,63.0,29.85,SW,229,0.0,0.0,96,0.36,,,0.64,,2013-06-18 18:43:00,
2013-06-18 14:53:00,64.0,63.0,29.85,SW,229,0.0,0.0,96,0.36,,,0.64,,2013-06-18 18:53:00,
2013-06-18 15:01:00,65.0,64.0,29.83,WNW,302,0.0,1.0,96,0.25,,,0.88,,2013-06-18 19:01:00,
2013-06-18 15:22:00,65.0,64.0,29.83,WNW,302,0.0,1.0,96,0.25,,,0.88,,2013-06-18 19:22:00,
2013-06-18 15:33:00,65.0,64.0,29.83,WNW,302,0.0,1.0,96,0.25,,,0.88,,2013-06-18 19:33:00,
2013-06-18 15:43:00,65.0,64.0,29.83,WNW,302,0.0,1.0,96,0.25,,,0.88,,2013-06-18 19:43:00,
2013-06-18 15:53:00,65.0,64.0,29.83,WNW,302,0.0,1.0,96,0.25,,,0.88,,2013-06-18 19:53:00,
2013-06-18 16:01:00,67.0,66.0,29.84,WNW,302,0.0,0.0,96,0.10,,,0.98,,2013-06-18 20:01:00,
2013-06-18 16:23:00,67.0,66.0,29.84,WNW,302,0.0,0.0,96,0.10,,,0.98,,2013-06-18 20:23:00,
2013-06-18 16:33:00,67.0,66.0,29.84,WNW,302,0.0,0.0,96,0.10,,,0.98,,2013-06-18 20:33:00,
2013-06-18 16:43:00,67.0,66.0,29.84,WNW,302,0.0,0.0,96,0.10,,,0.98,,2013-06-18 20:43:00,
2013-06-18 16:53:00,67.0,66.0,29.84,WNW,302,0.0,0.0,96,0.10,,,0.98,,2013-06-18 20:53:00,
2013-06-18 17:01:00,67.0,66.0,29.85,SW,232,0.0,0.0,96,0.05,,,1.03,,2013-06-18 21:01:00,
2013-06-18 17:23:00,67.0,66.0,29.85,SW,232,0.0,0.0,96,0.05,,,1.03,,2013-06-18 21:23:00,
2013-06-18 17:33:00,67.0,66.0,29.85,SW,232,0.0,0.0,96,0.05,,,1.03,,2013-06-18 21:33:00,
2013-06-18 17:43:00,67.0,66.0,29.85,SW,232,0.0,0.0,96,0.05,,,1.03,,2013-06-18 21:43:00,
2013-06-18 17:52:00,67.0,66.0,29.85,SW,232,0.0,0.0,96,0.05,,,1.03,,2013-06-18 21:52:00,
2013-06-18 18:22:00,65.0,64.0,29.82,SW,232,0.0,0.0,96,0.02,,,1.05,,2013-06-18 22:22:00,
2013-06-18 18:34:00,65.0,64.0,29.82,SW,232,0.0,0.0,96,0.02,,,1.05,,2013-06-18 22:34:00,
2013-06-18 18:43:00,65.0,64.0,29.82,SW,232,0.0,0.0,96,0.02,,,1.05,,2013-06-18 22:43:00,
2013-06-18 18:53:00,65.0,64.0,29.82,SW,232,0.0,0.0,96,0.02,,,1.05,,2013-06-18 22:53:00,
2013-06-18 19:01:00,65.0,64.0,29.82,SW,232,0.0,0.0,96,0.02,,,1.07,,2013-06-18 23:01:00,
2013-06-18 19:02:00,65.0,64.0,29.82,SW,232,0.0,0.0,96,0.02,,,1.05,,2013-06-18 23:02:00,
2013-06-18 19:23:00,65.0,64.0,29.82,SW,232,0.0,0.0,96,0.02,,,1.07,,2013-06-18 23:23:00,
2013-06-18 19:39:00,65.0,64.0,29.82,SW,232,0.0,0.0,96,0.02,,,1.07,,2013-06-18 23:39:00,
2013-06-18 19:48:00,65.0,64.0,29.82,SW,232,0.0,0.0,96,0.02,,,1.07,,2013-06-18 23:48:00,
2013-06-18 20:01:00,64.0,63.0,29.85,SW,231,0.0,0.0,97,0.01,,,1.08,,2013-06-19 00:01:00,
2013-06-18 20:22:00,64.0,63.0,29.85,SW,231,0.0,0.0,97,0.01,,,1.08,,2013-06-19 00:22:00,
2013-06-18 20:33:00,64.0,63.0,29.85,SW,231,0.0,0.0,97,0.01,,,1.08,,2013-06-19 00:33:00,
2013-06-18 20:43:00,64.0,63.0,29.85,SW,231,0.0,0.0,97,0.01,,,1.08,,2013-06-19 00:43:00,
2013-06-18 20:53:00,64.0,63.0,29.85,SW,231,0.0,0.0,97,0.01,,,1.08,,2013-06-19 00:53:00,
2013-06-18 21:32:00,64.0,63.0,29.85,SW,232,0.0,0.0,97,0.01,,,1.09,,2013-06-19 01:32:00,
2013-06-18 21:43:00,64.0,63.0,29.85,SW,232,0.0,0.0,97,0.01,,,1.09,,2013-06-19 01:43:00,
2013-06-18 21:53:00,64.0,63.0,29.85,SW,232,0.0,0.0,97,0.01,,,1.09,,2013-06-19 01:53:00,
2013-06-18 22:01:00,64.0,63.0,29.85,SW,232,0.0,0.0,97,0.01,,,1.09,,2013-06-19 02:01:00,
2013-06-18 23:43:00,63.0,62.0,29.88,SW,230,0.0,0.0,97,0.00,,,0.00,,2013-06-19 03:43:00,
2013-06-18 23:52:00,63.0,62.0,29.88,SW,230,0.0,0.0,97,0.00,,,0.00,,2013-06-19 03:52:00,